This is the latest recevied weather packets stored in our database for station/object K8JCL-13. If no packets are shown the sender has not sent any weather packets the latest 1 day(s).
| Time | Temp. | Humidity | Pressure | Rain* | Wind** | Luminosity | Snow |
|---|---|---|---|---|---|---|---|
| 1778090310 | 13.89° C | 57% | 1013.6 hPa | 0 mm | - | 416 W/m² | - |
| 1778089704 | 14.44° C | 58% | 1013.4 hPa | 0 mm | - | 299 W/m² | - |
| 1778089099 | 14.44° C | 61% | 1013.3 hPa | 0 mm | - | 361 W/m² | - |
| 1778088493 | 13.89° C | 59% | 1013.4 hPa | 0 mm | - | 373 W/m² | - |
| 1778086373 | 14.44° C | 64% | 1013.7 hPa | 0 mm | - | 485 W/m² | - |
| 1778086070 | 13.89° C | 66% | 1013.6 hPa | 0 mm | - | 723 W/m² | - |
| 1778085464 | 13.89° C | 69% | 1013.4 hPa | 0 mm | - | 707 W/m² | - |
| 1778084855 | 12.78° C | 69% | 1013.4 hPa | 0 mm | - | 485 W/m² | - |
| 1778084553 | 12.78° C | 65% | 1013.5 hPa | 0 mm | - | 330 W/m² | - |
| 1778083947 | 13.33° C | 66% | 1013.5 hPa | 0 mm | - | 386 W/m² | - |
| 1778083341 | 13.33° C | 64% | 1013.6 hPa | 0 mm | - | 382 W/m² | - |
| 1778081604 | 12.78° C | 65% | 1013.5 hPa | 0 mm | - | 613 W/m² | - |
| 1778081301 | 12.22° C | 69% | 1013.4 hPa | 0 mm | - | 602 W/m² | - |
| 1778080998 | 12.22° C | 73% | 1013.2 hPa | 0 mm | - | 630 W/m² | - |
| 1778080697 | 11.67° C | 73% | 1013.3 hPa | 0 mm | - | 375 W/m² | - |
| 1778080393 | 11.67° C | 70% | 1012.9 hPa | 0 mm | - | 285 W/m² | - |
| 1778080090 | 12.22° C | 73% | 1012.9 hPa | 0 mm | - | 498 W/m² | - |
| 1778079484 | 11.67° C | 74% | 1012.5 hPa | 0 mm | - | 433 W/m² | - |
| 1778079180 | 11.11° C | 72% | 1012.4 hPa | 0 mm | - | 496 W/m² | - |
| 1778077969 | 10.56° C | 76% | 1012.4 hPa | 0 mm | - | 437 W/m² | - |
| 1778077366 | 10.56° C | 78% | 1012.7 hPa | 0 mm | - | 542 W/m² | - |
| 1778074942 | 8.89° C | 87% | 1012.5 hPa | 0 mm | - | 161 W/m² | - |
| 1778074033 | 8.33° C | 89% | 1012.2 hPa | 0 mm | - | 137 W/m² | - |
| 1778071913 | 7.78° C | 92% | 1011.9 hPa | 0 mm | - | 136 W/m² | - |
| 1778070401 | 7.22° C | 94% | 1011.5 hPa | 0 mm | - | 66 W/m² | - |
* Rain latest hour (hover to see other rain measurements)
** Current wind speed in m/s (hover to see current wind gust speed)